Flag for Canada Weather past 2 weeks in Montreal, Quebec, Canada

Now
66 °F

Partly sunny.


Feels Like: 66 °F
Forecast: 61 / 78 °F
Wind: No wind

Location: Montreal - Pierre Elliot Trudeau International Aiport

Current Time: Jul 4, 2015 at 9:49:42 AM

Latest Report: Jul 4, 2015 at 9:00 AM


Visibility: 30 mi

Pressure: 29.95 "Hg

Humidity: 64%

Dew point: 54 °F

Location of MontrealLocation

Historic Weather in Montreal — Graph

°F

Montreal temperature yesterday

Maximum temperature yesterday: 75 °F (at 3:00 PM)
Minimum temperature yesterday: 55 °F (at 3:00 AM)
Average temperature yesterday: 66 °F

Past Weeks' High & Low Weather Summary

 TemperatureHumidityPressure
High81 °F (Jun 22, 4:00 PM)100% (Jun 29, 4:00 AM)30.16 "Hg (Jun 29, 4:00 AM)
Low50 °F (Jun 20, 5:00 AM)34% (Jun 26, 2:00 PM)29.52 "Hg (Jun 23, 3:00 PM)
Average66 °F69%29.89 "Hg
* Reported Jun 19 8:00 AM — Jul 4 8:00 AM, Montreal, Weather by CustomWeather, © 2015

Note: Actual official high and low records may vary slightly from our data, if they occured in-between our weather recording intervals... More about our weather records

Advertising

Montreal weather history for previous 24 hours

 ConditionsComfort  
Time TempWeatherWind HumidityBarometerVisibility
8:00 AM
Sat, Jul 4
64 °FPartly sunny.2 mph68%29.95 "Hg30 mi
7:00 AM61 °FMore clouds than sun.2 mph77%29.94 "Hg30 mi
6:00 AM59 °FOvercast.6 mph82%29.94 "Hg30 mi
5:00 AM59 °FOvercast.3 mph82%29.94 "Hg15 mi
4:00 AM57 °FPassing clouds.2 mph82%29.93 "Hg15 mi
3:00 AM61 °FPassing clouds.6 mph77%29.94 "Hg15 mi
2:00 AM63 °FPassing clouds.5 mph77%29.93 "Hg15 mi
1:00 AM63 °FPassing clouds.6 mph77%29.94 "Hg15 mi
12:00 AM64 °FPassing clouds.3 mph73%29.94 "Hg15 mi
11:00 PM
Fri, Jul 3
64 °FPassing clouds.7 mph73%29.94 "Hg15 mi
10:00 PM66 °FPassing clouds.5 mph64%29.94 "Hg15 mi
9:00 PM68 °FPartly sunny.7 mph56%29.93 "Hg15 mi
8:00 PM72 °FPartly sunny.9 mph50%29.93 "Hg30 mi
7:00 PM73 °FPartly sunny.14 mph47%29.92 "Hg30 mi
6:00 PM73 °FPassing clouds.15 mph47%29.92 "Hg30 mi
5:00 PM75 °FScattered clouds.16 mph44%29.92 "Hg30 mi
4:00 PM75 °FScattered clouds.12 mph39%29.92 "Hg30 mi
3:00 PM75 °FScattered clouds.14 mph44%29.93 "Hg30 mi
2:00 PM73 °FScattered clouds.12 mph41%29.94 "Hg30 mi
1:00 PM73 °FScattered clouds.14 mph50%29.95 "Hg30 mi
12:00 PM73 °FPassing clouds.13 mph53%29.95 "Hg30 mi
11:00 AM70 °FPassing clouds.10 mph60%29.96 "Hg30 mi
10:00 AM68 °FPassing clouds.8 mph60%29.96 "Hg30 mi
9:00 AM63 °FPassing clouds.10 mph73%29.96 "Hg30 mi
Weather by CustomWeather, © 2015

See weather overviewHow to use our weather pages